Retour au catalogue

STARLINK-3685

ActifCommunicationsVLEO
NORAD 52115·PAYLOAD·🇺🇸 United States

Lancé Mar 19, 2022 depuis Cape Canaveral Space Force Station

Loading…

Prochains Passages (prochaines 24 heures)

TLE

FraisSource: CelesTrak SupGP

Époque: Sep 15, 2026, 01:46 UTC

1 52115C 22029AD  26258.07409722  .00009573  00000+0  28279-3 0  2585
2 52115  53.1567 292.9439 0001299  93.2530  20.8182 15.34390697    13

Suivez STARLINK-3685 en temps réel avec AllMySat

Download on the App Store